Location: Malanoce
(44.2500°N, 7.4667°E)
Time: 20:54:04
(UTC+00:00)

SL-19 R/B - Pass Details

Date: 17 November 2025
Orbit: 795 x 1008 km, 99.6° (Epoch: 11 December)

Event Time Altitude Azimuth Distance (km) Brightness Sun altitude
Rises 18:06:32 0° 167° (SSE) 3,315 7.2 -22.3°
Reaches altitude 10° 18:08:52 10° 169° (S) 2,374 6.5 -22.7°
Maximum altitude 18:14:04 76° 255° (WSW) 823 4.2 -23.6°
Drops below altitude 10° 18:19:18 10° 342° (NNW) 2,383 6.7 -24.6°
Sets 18:21:39 0° 344° (NNW) 3,328 7.5 -25.0°
